Date,TemperatureHighF,TemperatureAvgF,TemperatureLowF,DewpointHighF,DewpointAvgF,DewpointLowF,HumidityHigh,HumidityAvg,HumidityLow,PressureMaxIn,PressureMinIn,WindSpeedMaxMPH,WindSpeedAvgMPH,GustSpeedMaxMPH,PrecipitationSumIn
2013-7-1,72.1,64.5,59.4,64.6,60.6,56.9,95,88,74,30.09,29.96,9,4,18,0.00
2013-7-2,73.8,64.2,57.6,62.8,58.0,53.9,94,81,63,30.13,30.09,6,3,9,0.00
2013-7-3,71.2,61.2,48.1,59.7,54.3,46.7,98,79,64,30.19,30.11,7,3,12,0.00
2013-7-4,68.1,61.4,55.7,57.7,54.1,52.2,90,77,63,30.15,30.08,8,5,13,0.00
2013-7-5,68.9,61.3,55.6,57.3,54.7,52.4,90,79,63,30.08,30.01,7,3,12,0.00
2013-7-6,70.4,60.6,56.2,60.8,55.5,52.9,92,84,70,30.01,29.92,7,2,11,0.00
2013-7-7,64.5,59.2,56.4,57.4,54.7,52.7,92,85,74,30.01,29.94,7,3,12,0.00
2013-7-8,69.8,58.9,55.7,60.4,55.0,52.8,95,87,70,30.13,30.01,6,2,7,0.00
2013-7-9,68.7,59.7,53.9,61.5,56.1,52.0,98,88,73,30.15,30.06,7,2,10,0.00
2013-7-10,65.2,56.9,54.2,52.3,50.6,48.8,92,80,61,30.09,30.02,7,4,11,0.00
2013-7-11,66.7,59.1,50.5,54.5,51.3,47.4,94,76,60,30.09,30.04,8,4,13,0.00
2013-7-12,67.0,55.3,46.3,56.1,50.1,44.9,97,84,58,30.14,30.03,6,2,10,0.00
2013-7-13,66.1,51.6,43.5,55.6,48.6,42.4,98,90,66,30.23,30.13,3,1,5,0.00
2013-7-14,70.9,59.2,46.8,59.0,52.5,45.7,98,80,58,30.16,30.04,7,2,11,0.00
2013-7-15,77.8,62.1,47.4,61.6,53.8,46.1,97,77,49,30.07,29.89,6,2,9,0.00
2013-7-16,80.7,64.9,49.4,64.5,55.8,48.3,98,75,50,29.97,29.80,6,2,9,0.00
2013-7-17,63.9,61.1,56.2,57.6,56.2,52.4,93,84,75,30.23,29.97,6,2,10,0.00
2013-7-18,70.3,61.0,53.1,59.7,55.2,50.7,95,82,66,30.26,30.17,7,2,10,0.00
2013-7-19,68.4,58.2,50.7,59.7,54.5,48.8,96,88,71,30.20,30.11,6,2,10,0.00
2013-7-20,65.9,57.7,53.8,57.7,54.1,52.4,96,88,74,30.13,30.02,6,2,9,0.00
2013-7-21,62.6,57.4,54.5,57.5,54.7,52.8,95,91,82,30.02,29.98,6,3,10,0.00
2013-7-22,65.1,57.7,54.3,59.1,55.0,52.9,96,91,78,30.10,30.00,6,2,6,0.00
2013-7-23,71.0,57.8,52.4,61.6,54.7,51.6,98,90,68,30.10,30.03,7,2,10,0.00
2013-7-24,68.4,57.5,52.2,60.0,54.0,51.1,96,89,70,30.11,30.06,7,3,11,0.00
2013-7-25,72.6,60.3,52.7,61.8,54.9,50.6,95,83,62,30.15,30.08,6,2,10,0.00
2013-7-26,71.4,58.9,45.8,60.5,52.6,44.7,98,81,58,30.20,30.13,8,3,12,0.00
2013-7-27,65.8,58.1,53.4,56.4,53.4,51.0,93,85,70,30.19,30.07,8,4,11,0.00
2013-7-28,62.2,57.9,54.3,55.5,54.0,52.0,95,87,77,30.07,30.01,5,2,10,0.00
2013-7-29,69.5,60.5,56.3,58.2,55.1,53.5,94,83,67,30.06,29.99,7,2,13,0.00
2013-7-30,63.2,58.7,55.7,57.5,55.3,53.8,94,88,80,30.17,30.06,4,2,7,0.00
2013-7-31,62.7,58.8,55.6,57.4,55.1,53.3,95,88,81,30.13,30.07,4,3,8,0.00